[[{"header":{"parameterUnit":"m.s-1","parameterCategory":1,"la1":30.2992,"la2":30.254,"lo1":-89.0895,"lo2":-89.0443,"dy":0.0025,"dx":0.0025,"nx":19,"ny":19,"refTime":"2026-05-13T21:00:00:Z","depth":0,"parameterNumber":2,"parameterNumberName":"U-component_of_WINDS"},"data":[0,0,0,0.3303,0.3305,0.3409,0.3409,0.3553,0.3554,0,0,0,0,0,0,0,0,0,0,0,0.3278,0.3279,0.3302,0.3305,0.3409,0.3409,0.3552,0.3554,0,0,0,0,0,0,0,0,0,0,0,0.3277,0.3278,0.328,0.3306,0.3409,0.3409,0.3552,0.347,0,0,0,0,0,0,0,0,0,0,0.3368,0.335,0.3278,0.328,0.3306,0.3409,0.3409,0.3466,0.3475,0.351,0,0.3542,0,0.355,0.3564,0.3565,0,0,0,0.3301,0.3342,0.3365,0.328,0.3307,0.3409,0.3361,0.3471,0.3482,0.3522,0.3544,0.3549,0.3553,0.3565,0.3566,0.3779,0.378,0,0,0.3296,0.3299,0.3358,0.3372,0.3356,0.3358,0.3364,0.3477,0.3501,0.3544,0.3552,0.3555,0.3566,0.3568,0.3778,0.3779,0,0,0,0.3282,0.3296,0.3315,0.3366,0.3384,0.3361,0.3368,0.3496,0.3502,0.3553,0.3557,0.3567,0.3569,0.3776,0.3778,0.384,0,0,0,0.3278,0.3287,0.3313,0.3317,0.3382,0.3441,0.3385,0.3494,0.3507,0.3556,0.3567,0.3571,0.3775,0.3777,0.3836,0.3869,0,0,0,0.3269,0.3286,0.3303,0.3317,0.3361,0.3439,0.3452,0.3497,0.3509,0.3565,0.3571,0.3774,0.3777,0.3832,0.3863,0.3927,0,0,0,0.326,0.3357,0.3304,0.3414,0.336,0.3477,0.3451,0.3537,0.3593,0.3568,0.3775,0.3778,0.3831,0.3859,0.3923,0.3982,0.4007,0,0,0.3384,0.3372,0.3436,0.3392,0.3519,0.3461,0.3597,0.3644,0.3646,0.3735,0.374,0.3837,0.3862,0.3926,0.4145,0.4165,0,0,0,0.3477,0.3523,0.3556,0.3608,0.3646,0.3682,0.3708,0.3726,0.3801,0.3692,0.3878,0.3892,0.393,0.3958,0.3975,0.4007,0.3791,0.3791,0.379,0.3658,0.3655,0.3761,0.3772,0.3823,0.3849,0.3891,0.392,0.3902,0.3946,0.3972,0.4105,0.4138,0.4151,0.4185,0.4003,0.4003,0.4003,0.4004,0.384,0.3905,0.388,0.3973,0.3971,0.405,0.408,0.4064,0.4138,0.4085,0.4118,0.4059,0.4173,0.4202,0.4008,0.4008,0.4007,0.4006,0.4006,0.3959,0.3989,0.4009,0.4086,0.4146,0.4153,0.4225,0.422,0.4216,0.4248,0.4276,0.4275,0.4274,0.4262,0.4262,0.4263,0.4263,0.4264,0.4264,0.4074,0.4094,0.4156,0.4205,0.4239,0.4283,0.4311,0.4344,0.438,0.4371,0.4371,0.435,0.4184,0.4143,0.4271,0.427,0.4269,0.4268,0.4268,0.426,0.4218,0.4312,0.4346,0.4405,0.4465,0.4458,0.4527,0.4553,0.459,0.4562,0.444,0.4427,0.4413,0.4379,0.4561,0.4561,0.4561,0.4561,0.4361,0.4354,0.445,0.4505,0.4558,0.4561,0.467,0.4694,0.4711,0.4728,0.4701,0.4656,0.4642,0.4637,0.4619,0.4587,0.4818,0.4818,0.4818,0.4476,0.4474,0.4567,0.4583,0.4628,0.4668,0.4771,0.4836,0.4847,0.4828,0.4742,0.4731,0.4657,0.4633,0.4612,0.4584,0.4525,0,0]},{"header":{"parameterUnit":"m.s-1","parameterCategory":1,"la1":30.2992,"la2":30.254,"lo1":-89.0895,"lo2":-89.0443,"dy":0.0025,"dx":0.0025,"nx":19,"ny":19,"refTime":"2026-05-13T21:00:00:Z","depth":0,"parameterNumber":3,"parameterNumberName":"V-component_of_WINDS"},"data":[0,0,0,-1.8769,-1.877,-1.8814,-1.8815,-1.8861,-1.8861,0,0,0,0,0,0,0,0,0,0,0,-1.875,-1.875,-1.8769,-1.877,-1.8814,-1.8815,-1.8861,-1.8861,0,0,0,0,0,0,0,0,0,0,0,-1.875,-1.875,-1.8751,-1.877,-1.8814,-1.8815,-1.8861,-1.8831,0,0,0,0,0,0,0,0,0,0,-1.879,-1.8766,-1.875,-1.8751,-1.8771,-1.8814,-1.8815,-1.883,-1.8833,-1.8837,0,-1.8839,0,-1.8851,-1.8864,-1.8864,0,0,0,-1.8774,-1.8764,-1.8781,-1.8751,-1.8771,-1.8814,-1.8796,-1.8832,-1.8835,-1.8841,-1.884,-1.8842,-1.8852,-1.8864,-1.8864,-1.8877,-1.8877,0,0,-1.8772,-1.8755,-1.8779,-1.8783,-1.8776,-1.8794,-1.8797,-1.8834,-1.8831,-1.884,-1.8843,-1.8853,-1.8864,-1.8865,-1.8877,-1.8877,0,0,0,-1.8762,-1.8753,-1.877,-1.8781,-1.879,-1.8795,-1.8798,-1.883,-1.8837,-1.8844,-1.8853,-1.8864,-1.8865,-1.8877,-1.8877,-1.8855,0,0,0,-1.8761,-1.8747,-1.8768,-1.8758,-1.8789,-1.881,-1.8793,-1.8834,-1.8839,-1.8853,-1.8864,-1.8865,-1.8877,-1.8877,-1.8856,-1.8847,0,0,0,-1.8749,-1.8746,-1.8751,-1.8757,-1.8776,-1.881,-1.8819,-1.8835,-1.8844,-1.8864,-1.8865,-1.8877,-1.8877,-1.8857,-1.8849,-1.8847,0,0,0,-1.8732,-1.8729,-1.875,-1.875,-1.8775,-1.8797,-1.8819,-1.8835,-1.885,-1.8865,-1.8877,-1.8877,-1.8857,-1.885,-1.8848,-1.8843,-1.8839,0,0,-1.8718,-1.8726,-1.8728,-1.8748,-1.8762,-1.8791,-1.8801,-1.8829,-1.8846,-1.8866,-1.8866,-1.8856,-1.8849,-1.8847,-1.8823,-1.882,0,0,0,-1.8718,-1.8719,-1.8726,-1.874,-1.8763,-1.8782,-1.8811,-1.8822,-1.884,-1.8853,-1.8855,-1.8851,-1.8851,-1.8849,-1.8847,-1.8848,-1.8875,-1.8875,-1.8875,-1.8673,-1.8697,-1.8702,-1.8731,-1.8744,-1.8776,-1.8789,-1.8809,-1.8827,-1.8827,-1.8833,-1.8816,-1.8813,-1.8811,-1.8813,-1.8832,-1.8832,-1.8832,-1.8832,-1.8656,-1.8661,-1.8689,-1.8703,-1.8728,-1.874,-1.8772,-1.8784,-1.88,-1.8812,-1.8813,-1.8826,-1.8807,-1.881,-1.883,-1.8831,-1.8831,-1.8831,-1.8831,-1.8629,-1.8636,-1.8651,-1.8676,-1.8692,-1.8722,-1.8737,-1.8758,-1.8779,-1.878,-1.8789,-1.879,-1.8794,-1.8783,-1.8783,-1.8783,-1.8783,-1.8783,-1.8783,-1.8596,-1.8614,-1.8624,-1.865,-1.8664,-1.8684,-1.8717,-1.8731,-1.8751,-1.8766,-1.8766,-1.8785,-1.8801,-1.8805,-1.8782,-1.8782,-1.8782,-1.8782,-1.8782,-1.857,-1.858,-1.8596,-1.8609,-1.8644,-1.8659,-1.8688,-1.8714,-1.8729,-1.8736,-1.8755,-1.8763,-1.8772,-1.8775,-1.8778,-1.8749,-1.8749,-1.8749,-1.8749,-1.8548,-1.8556,-1.8578,-1.8599,-1.8622,-1.865,-1.8668,-1.8695,-1.8724,-1.8735,-1.8742,-1.8749,-1.875,-1.8758,-1.8761,-1.8765,-1.8733,-1.8733,-1.8733,-1.8534,-1.8546,-1.8556,-1.8587,-1.8616,-1.8641,-1.8659,-1.8682,-1.8716,-1.8733,-1.8744,-1.8745,-1.8755,-1.8757,-1.8773,-1.8776,-1.8783,0,0]}]]